Location: Cuiry
(49.3858°N, 3.7708°E)
Time: 21:03:02
(UTC+00:00)

SPOT 1/Viking Rocket - Pass Details

Date: 12 January 2026
Orbit: 772 x 789 km, 98.2° (Epoch: 16 February)

Event Time Altitude Azimuth Distance (km) Brightness Sun altitude
Rises 16:57:53 0° 141° (SE) 3,262 6.6 -7.7°
Reaches altitude 10° 17:00:19 10° 134° (SE) 2,335 5.8 -8.1°
Maximum altitude 17:05:05 40° 66° (ENE) 1,141 3.9 -8.8°
Drops below altitude 10° 17:09:52 10° 359° (N) 2,339 5.8 -9.5°
Sets 17:12:18 0° 352° (N) 3,269 6.6 -9.9°
